Weather History for Portland Troutdale, OR

Change the Weather History Date:

Friday, January 24, 2014

  Actual Average Record
Temperature  
Mean Temperature 39 °F 41 °F  
Max Temperature 42 °F 47 °F 60 °F (2003)
Min Temperature 36 °F 35 °F 13 °F (1950)
Degree Days  
Heating Degree Days 26 24  
Month to date heating degree days 542 614  
Cooling Degree Days 0 0  
Month to date cooling degree days 0 0  
Moisture  
Dew Point 27 °F    
Average Humidity 62    
Maximum Humidity 70    
Minimum Humidity 53    
Precipitation  
Precipitation 0.00 in 0.19 in 0.87 in (1965)
Month to date precipitation 2.16 4.98  
Year to date precipitation 2.16 4.98  
Sea Level Pressure  
Sea Level Pressure 30.37 in    
Wind  
Wind Speed 30 mph (East)    
Max Wind Speed 40 mph    
Max Gust Speed 51 mph    
Visibility 10 miles    
Events      
T = Trace of Precipitation, MM = Missing Value Source: NWS Daily Summary

Daily Weather History Graph

Daily Weather History Graph

Search for Another Location

Airport:

Trip Planner

Search our weather history database for the weather conditions in past years. The results will help you decide how hot, cold, wet, or windy it might be!

Date:

Astronomy

Jan. 24, 2014 Rise Set
Actual Time 7:39 AM PST 5:04 PM PST
Civil Twilight 7:06 AM PST 5:37 PM PST
Nautical Twilight 6:30 AM PST 6:13 PM PST
Astronomical Twilight 5:55 AM PST 6:48 PM PST
Moon 1:08 AM PST (1/24) 11:30 AM PST (1/24)
Length of Visible Light 10h 30m
Length of Day
9h 25m
Last Quarter, 43% of the Moon is Illuminated
Jan 24
Last Quarter
Jan 30
New
Feb 6
First Quarter
Feb 14
Full
Feb 22
Last Quarter

Hourly Weather History & Observations

Time (PST) Temp. Windchill Dew Point Humidity Pressure Visibility Wind Dir Wind Speed Gust Speed Precip Events Conditions
12:53 AM 37.9 °F 26.1 °F 28.0 °F 68% 30.42 in 10.0 mi East 27.6 mph 35.7 mph N/A   Clear
1:53 AM 39.0 °F 27.6 °F 28.0 °F 65% 30.41 in 10.0 mi East 27.6 mph 36.8 mph N/A   Clear
2:53 AM 37.9 °F 25.5 °F 28.0 °F 68% 30.41 in 10.0 mi East 31.1 mph 41.4 mph N/A   Clear
3:53 AM 37.9 °F 25.3 °F 28.0 °F 68% 30.40 in 10.0 mi East 32.2 mph 42.6 mph N/A   Clear
4:53 AM 37.9 °F 25.7 °F 28.0 °F 68% 30.39 in 10.0 mi East 29.9 mph 40.3 mph N/A   Clear
5:53 AM 37.0 °F 24.3 °F 28.0 °F 70% 30.38 in 10.0 mi East 31.1 mph 43.7 mph N/A   Clear
6:53 AM 37.0 °F 24.7 °F 27.0 °F 67% 30.38 in 10.0 mi East 28.8 mph 40.3 mph N/A   Clear
7:53 AM 37.0 °F 23.7 °F 27.0 °F 67% 30.38 in 10.0 mi East 34.5 mph 46.0 mph N/A   Clear
8:53 AM 37.9 °F 25.5 °F 27.0 °F 65% 30.40 in 10.0 mi East 31.1 mph 40.3 mph N/A   Clear
9:53 AM 39.0 °F 26.6 °F 27.0 °F 62% 30.40 in 10.0 mi East 33.4 mph 46.0 mph N/A   Clear
10:53 AM 41.0 °F 30.0 °F 27.0 °F 57% 30.41 in 10.0 mi East 28.8 mph 40.3 mph N/A   Clear
11:53 AM 41.0 °F 29.0 °F 28.0 °F 60% 30.40 in 10.0 mi East 35.7 mph 48.3 mph N/A   Clear
12:53 PM 41.0 °F 29.3 °F 28.0 °F 60% 30.38 in 10.0 mi East 33.4 mph 43.7 mph N/A   Clear
1:53 PM 42.1 °F 31.3 °F 28.0 °F 58% 30.34 in 10.0 mi East 29.9 mph 40.3 mph N/A   Clear
2:53 PM 42.1 °F 31.5 °F 27.0 °F 55% 30.33 in 10.0 mi East 28.8 mph 47.2 mph N/A   Clear
3:53 PM 39.0 °F 26.1 °F 27.0 °F 62% 30.31 in 10.0 mi East 36.8 mph 49.5 mph N/A   Clear
4:53 PM 37.9 °F 25.5 °F 27.0 °F 65% 30.30 in 10.0 mi East 31.1 mph 49.5 mph N/A   Clear
5:53 PM 37.9 °F 26.3 °F 26.1 °F 62% 30.32 in 10.0 mi East 26.5 mph 36.8 mph N/A   Clear
6:53 PM 37.9 °F 25.9 °F 26.1 °F 62% 30.32 in 10.0 mi East 28.8 mph 42.6 mph N/A   Clear
7:53 PM 37.0 °F 25.9 °F 26.1 °F 65% 30.32 in 10.0 mi East 23.0 mph 39.1 mph N/A   Clear
8:53 PM 37.0 °F 25.4 °F 26.1 °F 65% 30.34 in 10.0 mi East 25.3 mph 36.8 mph N/A   Clear
9:53 PM 37.0 °F 24.7 °F 25.0 °F 62% 30.35 in 10.0 mi East 28.8 mph 39.1 mph N/A   Clear
10:53 PM 36.0 °F 23.2 °F 26.1 °F 67% 30.34 in 10.0 mi East 28.8 mph 38.0 mph N/A   Clear
11:53 PM 36.0 °F 24.2 °F 26.1 °F 67% 30.36 in 10.0 mi East 24.2 mph 40.3 mph N/A   Clear